#timestamp,LO_Frequency,Hit 
1499356815.9,286046995.4,N
1499356835.7,286046998.0,N
1499356855.6,286046997.5,N
1499356875.4,286046997.3,N
1499356895.2,286046997.3,N
1499356915.1,286046997.9,N
1499356916.0,286046997.9,N
1499356935.8,286046997.9,N
1499356955.7,286046997.3,N
1499356975.5,286046997.5,N
1499356995.3,286046998.0,N
1499357015.2,286046995.3,N
1499357035.0,286046995.0,N
1499357035.9,286046995.0,N
1499357055.7,286046995.1,N
1499357075.6,286046995.1,N
1499357095.4,286046995.1,N
1499357115.3,286046995.6,N
1499357135.1,286046995.8,N
1499357136.0,286046995.8,N
1499357155.8,286046995.3,N
1499357175.7,286046995.6,N
1499357195.5,286046995.3,N
1499357215.3,286046995.4,N
1499357235.2,286046995.1,N
1499357255.0,286046995.6,N
1499357255.9,286046995.6,N
1499357275.8,286046995.2,N
1499357295.6,286046995.5,N
1499357315.4,286046996.1,N
1499357335.3,286046996.3,N
1499357355.1,286046993.4,N
1499357375.9,286046994.0,N
1499357395.7,286046994.1,N
1499357415.5,286046994.4,N
1499357435.4,286046994.7,N
1499357455.2,286046992.3,N
1499357475.0,286046991.9,N
1499357475.9,286046991.9,N
1499357495.8,286046992.2,N
1499357515.6,286046991.8,N
1499357535.5,286046994.8,N
1499357555.3,286046992.0,N
1499357575.1,286046992.6,N
1499357595.9,286046992.6,N
1499357615.7,286046993.0,N
1499357635.6,286046992.8,N
1499357655.4,286046993.1,N
1499357675.2,286046992.7,N
1499357695.1,286046993.2,N
1499357696.0,286046993.2,N
1499357715.8,286046992.1,N
1499357735.6,286046993.1,N
1499357755.5,286046990.1,N
1499357775.3,286046997.4,N
1499357795.2,286046998.4,N
1499357815.9,286047000.8,N
1499357835.7,286046998.6,N
1499357855.6,286046999.2,N
1499357875.4,286046997.7,N
1499357895.2,286046995.4,N
1499357915.1,286046995.8,N
1499357916.0,286046995.8,N
1499357935.8,286046995.6,N
1499357955.7,286046993.3,N
1499357975.5,286046994.2,N
1499357995.3,286046994.4,N
1499358015.2,286046991.7,N
1499358035.0,286046991.7,N
1499358035.9,286046991.7,N
1499358055.7,286046994.8,N
1499358075.6,286046994.1,N
1499358095.4,286046993.9,N
1499358115.3,286046994.1,N
1499358135.1,286046994.6,N
1499358136.0,286046994.6,N
1499358155.8,286046994.3,N
1499358175.7,286046992.1,N
1499358195.5,286046992.0,N
1499358215.3,286046992.5,N
1499358235.2,286046992.3,N
1499358255.0,286046992.7,N
1499358255.9,286046992.7,N
1499358275.8,286046992.2,N
1499358295.6,286046992.0,N
1499358315.4,286046994.1,N
1499358335.3,286046994.4,N
1499358355.1,286046991.9,N
1499358375.9,286046990.1,N
1499358395.7,286046992.8,N
1499358415.5,286046990.8,N
1499358435.4,286046989.0,N
1499358455.2,286046991.2,N
1499358475.0,286046991.1,N
1499358475.9,286046991.1,N
1499358495.8,286046991.0,N
1499358515.6,286046991.4,N
1499358535.5,286046990.1,N
1499358555.3,286046993.2,N
1499358575.1,286046992.0,N
1499358595.9,286046992.0,N
1499358615.7,286046992.4,N
1499358635.5,286046992.4,N
1499358655.4,286046993.1,N
1499358675.2,286046992.8,N
1499358695.1,286046993.0,N
1499358696.0,286046993.0,N
1499358715.8,286046992.7,N
1499358735.6,286046992.3,N
1499358755.5,286046992.0,N
1499358775.3,286046992.0,N
1499358795.1,286046992.0,N
1499358815.9,286046992.0,N
1499358835.7,286046994.8,N
1499358855.6,286046992.1,N
1499358875.4,286046992.0,N
1499358895.2,286046992.0,N
1499358915.1,286046992.3,N
1499358916.0,286046992.3,N
1499358935.8,286046992.3,N
1499358955.7,286046992.1,N
1499358975.5,286046992.2,N
1499358995.3,286046992.1,N
1499359015.2,286046992.6,N
1499359035.0,286046992.6,N
1499359035.9,286046992.6,N
1499359055.7,286046992.1,N
1499359075.6,286046994.4,N
1499359095.4,286046994.7,N
1499359115.3,286046991.9,N
1499359135.1,286046991.7,N
1499359136.0,286046991.7,N
1499359155.8,286046991.7,N
1499359175.7,286046992.0,N
1499359195.5,286046996.0,N
1499359215.3,286046996.6,N
1499359235.2,286046997.4,N
1499359255.0,286047002.0,N
1499359255.9,286047002.0,N
1499359275.8,286047002.1,N
1499359295.6,286047001.7,N
1499359315.4,286047002.4,N
1499359335.3,286046998.9,N
1499359355.1,286046997.9,N
1499359375.8,286046995.6,N
1499359395.7,286046996.0,N
1499359415.5,286046996.4,N
1499359435.4,286046994.3,N
1499359455.2,286046992.3,N
1499359475.0,286046991.8,N
1499359475.9,286046991.8,N
1499359495.8,286046992.3,N
1499359515.6,286046992.2,N
1499359535.4,286046992.1,N
1499359555.3,286046991.7,N
1499359575.1,286046991.9,N
1499359595.9,286046992.6,N
1499359615.7,286046993.1,N
1499359635.5,286046990.2,N
1499359655.4,286046992.5,N
1499359675.2,286046992.9,N
1499359695.1,286046990.4,N
1499359696.0,286046990.4,N
1499359715.8,286046990.4,N
1499359735.6,286046991.5,N
1499359755.5,286046991.2,N
1499359775.3,286046991.0,N
1499359795.2,286046991.0,N
1499359815.9,286046991.2,N
1499359835.7,286046990.3,N
1499359855.6,286046991.3,N
1499359875.4,286046989.0,N
1499359895.2,286046988.8,N
1499359915.1,286046991.4,N
1499359916.0,286046991.4,N
1499359935.8,286046990.6,N
1499359955.7,286046991.0,N
1499359975.5,286046989.1,N
1499359995.3,286046988.8,N
1499360015.2,286046988.8,N
1499360035.0,286046989.1,N
1499360035.9,286046989.1,N
1499360055.7,286046988.6,N
1499360075.6,286046988.5,N
1499360095.4,286046989.0,N
1499360115.3,286046991.6,N
1499360135.1,286046990.2,N
1499360136.0,286046990.2,N
1499360155.8,286046993.0,N
1499360175.7,286046992.3,N
1499360195.5,286046992.9,N
1499360215.3,286046992.8,N
1499360235.2,286046990.5,N
1499360255.0,286046990.8,N
1499360255.9,286046990.8,N
1499360275.8,286046991.4,N
1499360295.6,286046990.7,N
1499360315.4,286046990.6,N
1499360335.3,286046992.8,N
1499360355.1,286046992.8,N
1499360375.9,286046990.7,N
1499360425.7,286046991.2,Y
